Year,Month,Day,Hour,Minute,Value (Times are PST for temperature in C)
2015,03,08,00,00,6.50
2015,03,08,00,01,6.50
2015,03,08,00,02,6.50
2015,03,08,00,03,6.50
2015,03,08,00,04,6.50
2015,03,08,00,05,6.50
2015,03,08,00,06,6.60
2015,03,08,00,07,6.60
2015,03,08,00,08,6.60
2015,03,08,00,09,6.60
2015,03,08,00,10,6.60
2015,03,08,00,11,6.60
2015,03,08,00,12,6.70
2015,03,08,00,13,6.70
2015,03,08,00,14,6.70
2015,03,08,00,15,6.70
2015,03,08,00,16,6.70
2015,03,08,00,17,6.70
2015,03,08,00,18,6.60
2015,03,08,00,19,6.60
2015,03,08,00,20,6.60
2015,03,08,00,21,6.60
2015,03,08,00,22,6.60
2015,03,08,00,23,6.60
2015,03,08,00,24,6.60
2015,03,08,00,25,6.60
2015,03,08,00,26,6.60
2015,03,08,00,27,6.60
2015,03,08,00,28,6.60
2015,03,08,00,29,6.60
2015,03,08,00,30,6.60
2015,03,08,00,31,6.60
2015,03,08,00,32,6.60
2015,03,08,00,33,6.70
2015,03,08,00,34,6.70
2015,03,08,00,35,6.70
2015,03,08,00,36,6.70
2015,03,08,00,37,6.70
2015,03,08,00,38,6.80
2015,03,08,00,39,6.80
2015,03,08,00,40,6.70
2015,03,08,00,41,6.70
2015,03,08,00,42,6.70
2015,03,08,00,43,6.70
2015,03,08,00,44,6.70
2015,03,08,00,45,6.70
2015,03,08,00,46,6.70
2015,03,08,00,47,6.60
2015,03,08,00,48,6.60
2015,03,08,00,49,6.60
2015,03,08,00,50,6.60
2015,03,08,00,51,6.50
2015,03,08,00,52,6.50
2015,03,08,00,53,6.50
2015,03,08,00,54,6.40
2015,03,08,00,55,6.40
2015,03,08,00,56,6.40
2015,03,08,00,57,6.30
2015,03,08,00,58,6.30
2015,03,08,00,59,6.30
2015,03,08,01,00,6.30
2015,03,08,01,01,6.20
2015,03,08,01,02,6.20
2015,03,08,01,03,6.20
2015,03,08,01,04,6.20
2015,03,08,01,05,6.20
2015,03,08,01,06,6.20
2015,03,08,01,07,6.20
2015,03,08,01,08,6.20
2015,03,08,01,09,6.20
2015,03,08,01,10,6.20
2015,03,08,01,11,6.20
2015,03,08,01,12,6.10
2015,03,08,01,13,6.10
2015,03,08,01,14,6.10
2015,03,08,01,15,6.00
2015,03,08,01,16,6.00
2015,03,08,01,17,6.00
2015,03,08,01,18,5.90
2015,03,08,01,19,5.90
2015,03,08,01,20,5.90
2015,03,08,01,21,5.90
2015,03,08,01,22,5.90
2015,03,08,01,23,5.90
2015,03,08,01,24,5.90
2015,03,08,01,25,5.80
2015,03,08,01,26,5.80
2015,03,08,01,27,5.80
2015,03,08,01,28,5.80
2015,03,08,01,29,5.70
2015,03,08,01,30,5.60
2015,03,08,01,31,5.60
2015,03,08,01,32,5.60
2015,03,08,01,33,5.60
2015,03,08,01,34,5.60
2015,03,08,01,35,5.60
2015,03,08,01,36,5.60
2015,03,08,01,37,5.60
2015,03,08,01,38,5.60
2015,03,08,01,39,5.60
2015,03,08,01,40,5.60
2015,03,08,01,41,5.60
2015,03,08,01,42,5.60
2015,03,08,01,43,5.60
2015,03,08,01,44,5.60
2015,03,08,01,45,5.50
2015,03,08,01,46,5.50
2015,03,08,01,47,5.50
2015,03,08,01,48,5.40
2015,03,08,01,49,5.40
2015,03,08,01,50,5.40
2015,03,08,01,51,5.40
2015,03,08,01,52,5.40
2015,03,08,01,53,5.40
2015,03,08,01,54,5.40
2015,03,08,01,55,5.40
2015,03,08,01,56,5.40
2015,03,08,01,57,5.40
2015,03,08,01,58,5.50
2015,03,08,01,59,5.50
2015,03,08,03,00,5.50
2015,03,08,03,01,5.50
2015,03,08,03,02,5.50
2015,03,08,03,03,5.50
2015,03,08,03,04,5.50
2015,03,08,03,05,5.50
2015,03,08,03,06,5.50
2015,03,08,03,07,5.50
2015,03,08,03,08,5.50
2015,03,08,03,09,5.50
2015,03,08,03,10,5.50
2015,03,08,03,11,5.50
2015,03,08,03,12,5.50
2015,03,08,03,13,5.40
2015,03,08,03,14,5.40
2015,03,08,03,15,5.40
2015,03,08,03,16,5.50
2015,03,08,03,17,5.50
2015,03,08,03,18,5.50
2015,03,08,03,19,5.50
2015,03,08,03,20,5.50
2015,03,08,03,21,5.50
2015,03,08,03,22,5.50
2015,03,08,03,23,5.50
2015,03,08,03,24,5.50
2015,03,08,03,25,5.50
2015,03,08,03,26,5.40
2015,03,08,03,27,5.40
2015,03,08,03,28,5.40
2015,03,08,03,29,5.40
2015,03,08,03,30,5.40
2015,03,08,03,31,5.30
2015,03,08,03,32,5.30
2015,03,08,03,33,5.30
2015,03,08,03,34,5.30
2015,03,08,03,35,5.30
2015,03,08,03,36,5.20
2015,03,08,03,37,5.20
2015,03,08,03,38,5.20
2015,03,08,03,39,5.20
2015,03,08,03,40,5.20
2015,03,08,03,41,5.20
2015,03,08,03,42,5.20
2015,03,08,03,43,5.20
2015,03,08,03,44,5.20
2015,03,08,03,45,5.10
2015,03,08,03,46,5.10
2015,03,08,03,47,5.10
2015,03,08,03,48,5.10
2015,03,08,03,49,5.10
2015,03,08,03,50,5.10
2015,03,08,03,51,5.00
2015,03,08,03,52,5.00
2015,03,08,03,53,5.00
2015,03,08,03,54,5.00
2015,03,08,03,55,4.90
2015,03,08,03,56,4.90
2015,03,08,03,57,4.90
2015,03,08,03,58,4.90
2015,03,08,03,59,4.90
2015,03,08,04,00,4.90
2015,03,08,04,01,4.90
2015,03,08,04,02,4.90
2015,03,08,04,03,4.90
2015,03,08,04,04,4.90
2015,03,08,04,05,4.90
2015,03,08,04,06,4.80
2015,03,08,04,07,4.80
2015,03,08,04,08,4.80
2015,03,08,04,09,4.80
2015,03,08,04,10,4.80
2015,03,08,04,11,4.70
2015,03,08,04,12,4.70
2015,03,08,04,13,4.70
2015,03,08,04,14,4.70
2015,03,08,04,15,4.70
2015,03,08,04,16,4.70
2015,03,08,04,17,4.60
2015,03,08,04,18,4.60
2015,03,08,04,19,4.60
2015,03,08,04,20,4.60
2015,03,08,04,21,4.60
2015,03,08,04,22,4.60
2015,03,08,04,23,4.50
2015,03,08,04,24,4.50
2015,03,08,04,25,4.50
2015,03,08,04,26,4.50
2015,03,08,04,27,4.40
2015,03,08,04,28,4.40
2015,03,08,04,29,4.40
2015,03,08,04,30,4.40
2015,03,08,04,31,4.30
2015,03,08,04,32,4.30
2015,03,08,04,33,4.30
2015,03,08,04,34,4.30
2015,03,08,04,35,4.30
2015,03,08,04,36,4.30
2015,03,08,04,37,4.30
2015,03,08,04,38,4.30
2015,03,08,04,39,4.20
2015,03,08,04,40,4.20
2015,03,08,04,41,4.20
2015,03,08,04,42,4.20
2015,03,08,04,43,4.20
2015,03,08,04,44,4.20
2015,03,08,04,45,4.20
2015,03,08,04,46,4.20
2015,03,08,04,47,4.20
2015,03,08,04,48,4.20
2015,03,08,04,49,4.20
2015,03,08,04,50,4.20
2015,03,08,04,51,4.20
2015,03,08,04,52,4.20
2015,03,08,04,53,4.20
2015,03,08,04,54,4.20
2015,03,08,04,55,4.20
2015,03,08,04,56,4.20
2015,03,08,04,57,4.20
2015,03,08,04,58,4.20
2015,03,08,04,59,4.20
2015,03,08,05,00,4.20
2015,03,08,05,01,4.20
2015,03,08,05,02,4.20
2015,03,08,05,03,4.20
2015,03,08,05,04,4.20
2015,03,08,05,05,4.20
2015,03,08,05,06,4.20
2015,03,08,05,07,4.20
2015,03,08,05,08,4.20
2015,03,08,05,09,4.20
2015,03,08,05,10,4.20
2015,03,08,05,11,4.20
2015,03,08,05,12,4.20
2015,03,08,05,13,4.20
2015,03,08,05,14,4.30
2015,03,08,05,15,4.30
2015,03,08,05,16,4.30
2015,03,08,05,17,4.30
2015,03,08,05,18,4.30
2015,03,08,05,19,4.30
2015,03,08,05,20,4.30
2015,03,08,05,21,4.30
2015,03,08,05,22,4.30
2015,03,08,05,23,4.20
2015,03,08,05,24,4.20
2015,03,08,05,25,4.10
2015,03,08,05,26,4.10
2015,03,08,05,27,4.00
2015,03,08,05,28,4.00
2015,03,08,05,29,3.90
2015,03,08,05,30,3.90
2015,03,08,05,31,3.90
2015,03,08,05,32,3.90
2015,03,08,05,33,4.00
2015,03,08,05,34,4.00
2015,03,08,05,35,4.00
2015,03,08,05,36,4.00
2015,03,08,05,37,4.10
2015,03,08,05,38,4.10
2015,03,08,05,39,4.10
2015,03,08,05,40,4.10
2015,03,08,05,41,4.10
2015,03,08,05,42,4.10
2015,03,08,05,43,4.20
2015,03,08,05,44,4.20
2015,03,08,05,45,4.20
2015,03,08,05,46,4.20
2015,03,08,05,47,4.20
2015,03,08,05,48,4.20
2015,03,08,05,49,4.20
2015,03,08,05,50,4.20
2015,03,08,05,51,4.20
2015,03,08,05,52,4.20
2015,03,08,05,53,4.10
2015,03,08,05,54,4.10
2015,03,08,05,55,4.10
2015,03,08,05,56,4.10
2015,03,08,05,57,4.00
2015,03,08,05,58,4.00
2015,03,08,05,59,4.00
2015,03,08,06,00,4.00
2015,03,08,06,01,4.00
2015,03,08,06,02,3.90
2015,03,08,06,03,3.90
2015,03,08,06,04,3.90
2015,03,08,06,05,3.90
2015,03,08,06,06,3.90
2015,03,08,06,07,3.80
2015,03,08,06,08,3.80
2015,03,08,06,09,3.80
2015,03,08,06,10,3.80
2015,03,08,06,11,3.80
2015,03,08,06,12,3.80
2015,03,08,06,13,3.80
2015,03,08,06,14,3.80
2015,03,08,06,15,3.80
2015,03,08,06,16,3.80
2015,03,08,06,17,3.80
2015,03,08,06,18,3.90
2015,03,08,06,19,3.90
2015,03,08,06,20,3.90
2015,03,08,06,21,3.90
2015,03,08,06,22,3.90
2015,03,08,06,23,3.90
2015,03,08,06,24,3.90
2015,03,08,06,25,3.90
2015,03,08,06,26,3.90
2015,03,08,06,27,3.90
2015,03,08,06,28,3.90
2015,03,08,06,29,3.90
2015,03,08,06,30,3.90
2015,03,08,06,31,3.90
2015,03,08,06,32,3.80
2015,03,08,06,33,3.80
2015,03,08,06,34,3.80
2015,03,08,06,35,3.80
2015,03,08,06,36,3.80
2015,03,08,06,37,3.80
2015,03,08,06,38,3.80
2015,03,08,06,39,3.80
2015,03,08,06,40,3.80
2015,03,08,06,41,3.80
2015,03,08,06,42,3.80
2015,03,08,06,43,3.80
2015,03,08,06,44,3.80
2015,03,08,06,45,3.80
2015,03,08,06,46,3.80
2015,03,08,06,47,3.80
2015,03,08,06,48,3.80
2015,03,08,06,49,3.80
2015,03,08,06,50,3.80
2015,03,08,06,51,3.80
2015,03,08,06,52,3.80
2015,03,08,06,53,3.80
2015,03,08,06,54,3.80
2015,03,08,06,55,3.80
2015,03,08,06,56,3.80
2015,03,08,06,57,3.80
2015,03,08,06,58,3.70
2015,03,08,06,59,3.70
2015,03,08,07,00,3.70
2015,03,08,07,01,3.70
2015,03,08,07,02,3.70
2015,03,08,07,03,3.70
2015,03,08,07,04,3.70
2015,03,08,07,05,3.70
2015,03,08,07,06,3.70
2015,03,08,07,07,3.70
2015,03,08,07,08,3.70
2015,03,08,07,09,3.80
2015,03,08,07,10,3.80
2015,03,08,07,11,3.80
2015,03,08,07,12,3.70
2015,03,08,07,13,3.70
2015,03,08,07,14,3.70
2015,03,08,07,15,3.70
2015,03,08,07,16,3.70
2015,03,08,07,17,3.70
2015,03,08,07,18,3.70
2015,03,08,07,19,3.70
2015,03,08,07,20,3.70
2015,03,08,07,21,3.70
2015,03,08,07,22,3.70
2015,03,08,07,23,3.70
2015,03,08,07,24,3.70
2015,03,08,07,25,3.70
2015,03,08,07,26,3.70
2015,03,08,07,27,3.70
2015,03,08,07,28,3.70
2015,03,08,07,29,3.70
2015,03,08,07,30,3.60
2015,03,08,07,31,3.60
2015,03,08,07,32,3.60
2015,03,08,07,33,3.50
2015,03,08,07,34,3.50
2015,03,08,07,35,3.50
2015,03,08,07,36,3.40
2015,03,08,07,37,3.40
2015,03,08,07,38,3.40
2015,03,08,07,39,3.50
2015,03,08,07,40,3.50
2015,03,08,07,41,3.50
2015,03,08,07,42,3.50
2015,03,08,07,43,3.50
2015,03,08,07,44,3.50
2015,03,08,07,45,3.50
2015,03,08,07,46,3.50
2015,03,08,07,47,3.60
2015,03,08,07,48,3.70
2015,03,08,07,49,3.80
2015,03,08,07,50,3.80
2015,03,08,07,51,3.90
2015,03,08,07,52,4.00
2015,03,08,07,53,4.00
2015,03,08,07,54,4.00
2015,03,08,07,55,4.10
2015,03,08,07,56,4.10
2015,03,08,07,57,4.10
2015,03,08,07,58,4.10
2015,03,08,07,59,4.10
2015,03,08,08,00,4.20
2015,03,08,08,01,4.20
2015,03,08,08,02,4.20
2015,03,08,08,03,4.20
2015,03,08,08,04,4.30
2015,03,08,08,05,4.30
2015,03,08,08,06,4.30
2015,03,08,08,07,4.30
2015,03,08,08,08,4.30
2015,03,08,08,09,4.40
2015,03,08,08,10,4.40
2015,03,08,08,11,4.40
2015,03,08,08,12,4.40
2015,03,08,08,13,4.40
2015,03,08,08,14,4.50
2015,03,08,08,15,4.50
2015,03,08,08,16,4.60
2015,03,08,08,17,4.60
2015,03,08,08,18,4.60
2015,03,08,08,19,4.60
2015,03,08,08,20,4.60
2015,03,08,08,21,4.60
2015,03,08,08,22,4.60
2015,03,08,08,23,4.60
2015,03,08,08,24,4.70
2015,03,08,08,25,4.70
2015,03,08,08,26,4.70
2015,03,08,08,27,4.70
2015,03,08,08,28,4.70
2015,03,08,08,29,4.70
2015,03,08,08,30,4.70
2015,03,08,08,31,4.70
2015,03,08,08,32,4.70
2015,03,08,08,33,4.70
2015,03,08,08,34,4.80
2015,03,08,08,35,4.80
2015,03,08,08,36,4.80
2015,03,08,08,37,4.80
2015,03,08,08,38,4.80
2015,03,08,08,39,4.80
2015,03,08,08,40,4.80
2015,03,08,08,41,4.80
2015,03,08,08,42,4.80
2015,03,08,08,43,4.80
2015,03,08,08,44,4.90
2015,03,08,08,45,4.90
2015,03,08,08,46,4.90
2015,03,08,08,47,4.90
2015,03,08,08,48,4.90
2015,03,08,08,49,4.90
2015,03,08,08,50,4.80
2015,03,08,08,51,4.80
2015,03,08,08,52,4.80
2015,03,08,08,53,4.80
2015,03,08,08,54,4.80
2015,03,08,08,55,4.80
2015,03,08,08,56,4.80
2015,03,08,08,57,4.70
2015,03,08,08,58,4.80
2015,03,08,08,59,4.80
2015,03,08,09,00,4.70
2015,03,08,09,01,4.70
2015,03,08,09,02,4.60
2015,03,08,09,03,4.50
2015,03,08,09,04,4.40
2015,03,08,09,05,4.40
2015,03,08,09,06,4.30
2015,03,08,09,07,4.20
2015,03,08,09,08,4.20
2015,03,08,09,09,4.20
2015,03,08,09,10,4.10
2015,03,08,09,11,4.10
2015,03,08,09,12,4.00
2015,03,08,09,13,4.00
2015,03,08,09,14,3.90
2015,03,08,09,15,3.90
2015,03,08,09,16,3.90
2015,03,08,09,17,3.80
2015,03,08,09,18,3.80
2015,03,08,09,19,3.80
2015,03,08,09,20,3.80
2015,03,08,09,21,3.80
2015,03,08,09,22,3.80
2015,03,08,09,23,3.80
2015,03,08,09,24,3.80
2015,03,08,09,25,3.80
2015,03,08,09,26,3.80
2015,03,08,09,27,3.90
2015,03,08,09,28,3.90
2015,03,08,09,29,3.90
2015,03,08,09,30,3.90
2015,03,08,09,31,3.90
2015,03,08,09,32,3.90
2015,03,08,09,33,3.90
2015,03,08,09,34,4.00
2015,03,08,09,35,4.00
2015,03,08,09,36,4.00
2015,03,08,09,37,4.10
2015,03,08,09,38,4.10
2015,03,08,09,39,4.10
2015,03,08,09,40,4.20
2015,03,08,09,41,4.20
2015,03,08,09,42,4.20
2015,03,08,09,43,4.30
2015,03,08,09,44,4.30
2015,03,08,09,45,4.30
2015,03,08,09,46,4.30
2015,03,08,09,47,4.30
2015,03,08,09,48,4.40
2015,03,08,09,49,4.40
2015,03,08,09,50,4.40
2015,03,08,09,51,4.30
2015,03,08,09,52,4.30
2015,03,08,09,53,4.20
2015,03,08,09,54,4.20
2015,03,08,09,55,4.10
2015,03,08,09,56,4.10
2015,03,08,09,57,4.10
2015,03,08,09,58,4.10
2015,03,08,09,59,4.10
2015,03,08,10,00,4.10
2015,03,08,10,01,4.10
2015,03,08,10,02,4.00
2015,03,08,10,03,4.00
2015,03,08,10,04,4.00
2015,03,08,10,05,4.00
2015,03,08,10,06,4.00
2015,03,08,10,07,4.00
2015,03,08,10,08,4.00
2015,03,08,10,09,4.10
2015,03,08,10,10,4.10
2015,03,08,10,11,4.10
2015,03,08,10,12,4.10
2015,03,08,10,13,4.20
2015,03,08,10,14,4.20
2015,03,08,10,15,4.20
2015,03,08,10,16,4.20
2015,03,08,10,17,4.20
2015,03,08,10,18,4.20
2015,03,08,10,19,4.30
2015,03,08,10,20,4.30
2015,03,08,10,21,4.40
2015,03,08,10,22,4.40
2015,03,08,10,23,4.40
2015,03,08,10,24,4.50
2015,03,08,10,25,4.50
2015,03,08,10,26,4.50
2015,03,08,10,27,4.50
2015,03,08,10,28,4.50
2015,03,08,10,29,4.60
2015,03,08,10,30,4.60
2015,03,08,10,31,4.70
2015,03,08,10,32,4.70
2015,03,08,10,33,4.80
2015,03,08,10,34,4.80
2015,03,08,10,35,4.80
2015,03,08,10,36,4.90
2015,03,08,10,37,4.90
2015,03,08,10,38,5.00
2015,03,08,10,39,5.00
2015,03,08,10,40,5.00
2015,03,08,10,41,5.10
2015,03,08,10,42,5.10
2015,03,08,10,43,5.20
2015,03,08,10,44,5.20
2015,03,08,10,45,5.30
2015,03,08,10,46,5.30
2015,03,08,10,47,5.40
2015,03,08,10,48,5.40
2015,03,08,10,49,5.50
2015,03,08,10,50,5.50
2015,03,08,10,51,5.50
2015,03,08,10,52,5.60
2015,03,08,10,53,5.60
2015,03,08,10,54,5.60
2015,03,08,10,55,5.60
2015,03,08,10,56,5.70
2015,03,08,10,57,5.70
2015,03,08,10,58,5.80
2015,03,08,10,59,5.80
2015,03,08,11,00,5.90
2015,03,08,11,01,5.90
2015,03,08,11,02,6.00
2015,03,08,11,03,6.10
2015,03,08,11,04,6.10
2015,03,08,11,05,6.20
2015,03,08,11,06,6.20
2015,03,08,11,07,6.20
2015,03,08,11,08,6.30
2015,03,08,11,09,6.30
2015,03,08,11,10,6.30
2015,03,08,11,11,6.40
2015,03,08,11,12,6.40
2015,03,08,11,13,6.40
2015,03,08,11,14,6.50
2015,03,08,11,15,6.50
2015,03,08,11,16,6.50
2015,03,08,11,17,6.60
2015,03,08,11,18,6.60
2015,03,08,11,19,6.70
2015,03,08,11,20,6.70
2015,03,08,11,21,6.60
2015,03,08,11,22,6.60
2015,03,08,11,23,6.60
2015,03,08,11,24,6.60
2015,03,08,11,25,6.60
2015,03,08,11,26,6.50
2015,03,08,11,27,6.60
2015,03,08,11,28,6.60
2015,03,08,11,29,6.60
2015,03,08,11,30,6.60
2015,03,08,11,31,6.70
2015,03,08,11,32,6.70
2015,03,08,11,33,6.70
2015,03,08,11,34,6.70
2015,03,08,11,35,6.70
2015,03,08,11,36,6.70
2015,03,08,11,37,6.70
2015,03,08,11,38,6.70
2015,03,08,11,39,6.70
2015,03,08,11,40,6.70
2015,03,08,11,41,6.70
2015,03,08,11,42,6.70
2015,03,08,11,43,6.70
2015,03,08,11,44,6.70
2015,03,08,11,45,6.80
2015,03,08,11,46,6.80
2015,03,08,11,47,6.80
2015,03,08,11,48,6.80
2015,03,08,11,49,6.90
2015,03,08,11,50,6.90
2015,03,08,11,51,7.00
2015,03,08,11,52,7.00
2015,03,08,11,53,7.10
2015,03,08,11,54,7.20
2015,03,08,11,55,7.20
2015,03,08,11,56,7.30
2015,03,08,11,57,7.30
2015,03,08,11,58,7.40
2015,03,08,11,59,7.40
2015,03,08,12,00,7.50
2015,03,08,12,01,7.60
2015,03,08,12,02,7.70
2015,03,08,12,03,7.80
2015,03,08,12,04,7.80
2015,03,08,12,05,7.80
2015,03,08,12,06,7.80
2015,03,08,12,07,7.90
2015,03,08,12,08,7.90
2015,03,08,12,09,8.00
2015,03,08,12,10,8.10
2015,03,08,12,11,8.10
2015,03,08,12,12,8.20
2015,03,08,12,13,8.20
2015,03,08,12,14,8.20
2015,03,08,12,15,8.20
2015,03,08,12,16,8.30
2015,03,08,12,17,8.30
2015,03,08,12,18,8.30
2015,03,08,12,19,8.30
2015,03,08,12,20,8.40
2015,03,08,12,21,8.40
2015,03,08,12,22,8.30
2015,03,08,12,23,8.30
2015,03,08,12,24,8.30
2015,03,08,12,25,8.20
2015,03,08,12,26,8.20
2015,03,08,12,27,8.20
2015,03,08,12,28,8.20
2015,03,08,12,29,8.20
2015,03,08,12,30,8.10
2015,03,08,12,31,8.10
2015,03,08,12,32,8.20
2015,03,08,12,33,8.10
2015,03,08,12,34,8.10
2015,03,08,12,35,8.10
2015,03,08,12,36,8.00
2015,03,08,12,37,7.90
2015,03,08,12,38,7.90
2015,03,08,12,39,7.90
2015,03,08,12,40,7.90
2015,03,08,12,41,7.90
2015,03,08,12,42,7.90
2015,03,08,12,43,7.90
2015,03,08,12,44,7.90
2015,03,08,12,45,7.90
2015,03,08,12,46,8.00
2015,03,08,12,47,8.10
2015,03,08,12,48,8.10
2015,03,08,12,49,8.10
2015,03,08,12,50,8.10
2015,03,08,12,51,8.10
2015,03,08,12,52,8.20
2015,03,08,12,53,8.20
2015,03,08,12,54,8.20
2015,03,08,12,55,8.20
2015,03,08,12,56,8.20
2015,03,08,12,57,8.20
2015,03,08,12,58,8.30
2015,03,08,12,59,8.30
2015,03,08,13,00,8.30
2015,03,08,13,01,8.30
2015,03,08,13,02,8.40
2015,03,08,13,03,8.40
2015,03,08,13,04,8.50
2015,03,08,13,05,8.60
2015,03,08,13,06,8.70
2015,03,08,13,07,8.70
2015,03,08,13,08,8.80
2015,03,08,13,09,8.80
2015,03,08,13,10,8.90
2015,03,08,13,11,8.90
2015,03,08,13,12,8.90
2015,03,08,13,13,8.90
2015,03,08,13,14,8.90
2015,03,08,13,15,8.80
2015,03,08,13,16,8.80
2015,03,08,13,17,8.70
2015,03,08,13,18,8.70
2015,03,08,13,19,8.70
2015,03,08,13,20,8.80
2015,03,08,13,21,8.80
2015,03,08,13,22,8.80
2015,03,08,13,23,8.90
2015,03,08,13,24,9.00
2015,03,08,13,25,9.00
2015,03,08,13,26,9.10
2015,03,08,13,27,9.10
2015,03,08,13,28,9.10
2015,03,08,13,29,9.10
2015,03,08,13,30,9.10
2015,03,08,13,31,9.10
2015,03,08,13,32,9.10
2015,03,08,13,33,9.10
2015,03,08,13,34,9.20
2015,03,08,13,35,9.20
2015,03,08,13,36,9.30
2015,03,08,13,37,9.40
2015,03,08,13,38,9.50
2015,03,08,13,39,9.60
2015,03,08,13,40,9.60
2015,03,08,13,41,9.60
2015,03,08,13,42,9.70
2015,03,08,13,43,9.80
2015,03,08,13,44,9.80
2015,03,08,13,45,9.90
2015,03,08,13,46,10.00
2015,03,08,13,47,10.00
2015,03,08,13,48,10.10
2015,03,08,13,49,10.20
2015,03,08,13,50,10.30
2015,03,08,13,51,10.40
2015,03,08,13,52,10.50
2015,03,08,13,53,10.50
2015,03,08,13,54,10.50
2015,03,08,13,55,10.40
2015,03,08,13,56,10.40
2015,03,08,13,57,10.30
2015,03,08,13,58,10.30
2015,03,08,13,59,10.30
2015,03,08,14,00,10.30
2015,03,08,14,01,10.30
2015,03,08,14,02,10.30
2015,03,08,14,03,10.30
2015,03,08,14,04,10.30
2015,03,08,14,05,10.40
2015,03,08,14,06,10.40
2015,03,08,14,07,10.50
2015,03,08,14,08,10.50
2015,03,08,14,09,10.50
2015,03,08,14,10,10.60
2015,03,08,14,11,10.60
2015,03,08,14,12,10.70
2015,03,08,14,13,10.70
2015,03,08,14,14,10.70
2015,03,08,14,15,10.70
2015,03,08,14,16,10.70
2015,03,08,14,17,10.70
2015,03,08,14,18,10.80
2015,03,08,14,19,10.80
2015,03,08,14,20,10.90
2015,03,08,14,21,10.90
2015,03,08,14,22,11.00
2015,03,08,14,23,11.00
2015,03,08,14,24,11.10
2015,03,08,14,25,11.20
2015,03,08,14,26,11.20
2015,03,08,14,27,11.20
2015,03,08,14,28,11.20
2015,03,08,14,29,11.20
2015,03,08,14,30,11.20
2015,03,08,14,31,11.20
2015,03,08,14,32,11.10
2015,03,08,14,33,11.20
2015,03,08,14,34,11.20
2015,03,08,14,35,11.30
2015,03,08,14,36,11.30
2015,03,08,14,37,11.30
2015,03,08,14,38,11.30
2015,03,08,14,39,11.30
2015,03,08,14,40,11.40
2015,03,08,14,41,11.40
2015,03,08,14,42,11.50
2015,03,08,14,43,11.60
2015,03,08,14,44,11.60
2015,03,08,14,45,11.70
2015,03,08,14,46,11.70
2015,03,08,14,47,11.70
2015,03,08,14,48,11.70
2015,03,08,14,49,11.70
2015,03,08,14,50,11.70
2015,03,08,14,51,11.80
2015,03,08,14,52,11.80
2015,03,08,14,53,11.80
2015,03,08,14,54,11.80
2015,03,08,14,55,11.80
2015,03,08,14,56,11.80
2015,03,08,14,57,11.90
2015,03,08,14,58,12.00
2015,03,08,14,59,12.00
2015,03,08,15,00,12.00
2015,03,08,15,01,12.00
2015,03,08,15,02,12.00
2015,03,08,15,03,11.90
2015,03,08,15,04,11.90
2015,03,08,15,05,11.90
2015,03,08,15,06,12.00
2015,03,08,15,07,12.10
2015,03,08,15,08,12.20
2015,03,08,15,09,12.30
2015,03,08,15,10,12.40
2015,03,08,15,11,12.50
2015,03,08,15,12,12.50
2015,03,08,15,13,12.60
2015,03,08,15,14,12.70
2015,03,08,15,15,12.80
2015,03,08,15,16,12.90
2015,03,08,15,17,12.90
2015,03,08,15,18,12.90
2015,03,08,15,19,12.90
2015,03,08,15,20,12.90
2015,03,08,15,21,12.90
2015,03,08,15,22,12.80
2015,03,08,15,23,12.80
2015,03,08,15,24,12.80
2015,03,08,15,25,12.80
2015,03,08,15,26,12.80
2015,03,08,15,27,12.70
2015,03,08,15,28,12.60
2015,03,08,15,29,12.50
2015,03,08,15,30,12.40
2015,03,08,15,31,12.30
2015,03,08,15,32,12.20
2015,03,08,15,33,12.20
2015,03,08,15,34,12.20
2015,03,08,15,35,12.20
2015,03,08,15,36,12.20
2015,03,08,15,37,12.20
2015,03,08,15,38,12.30
2015,03,08,15,39,12.30
2015,03,08,15,40,12.30
2015,03,08,15,41,12.30
2015,03,08,15,42,12.40
2015,03,08,15,43,12.40
2015,03,08,15,44,12.40
2015,03,08,15,45,12.30
2015,03,08,15,46,12.30
2015,03,08,15,47,12.30
2015,03,08,15,48,12.20
2015,03,08,15,49,12.20
2015,03,08,15,50,12.20
2015,03,08,15,51,12.10
2015,03,08,15,52,12.10
2015,03,08,15,53,12.00
2015,03,08,15,54,12.00
2015,03,08,15,55,11.90
2015,03,08,15,56,11.90
2015,03,08,15,57,11.80
2015,03,08,15,58,11.80
2015,03,08,15,59,11.70
2015,03,08,16,00,11.70
2015,03,08,16,01,11.60
2015,03,08,16,02,11.60
2015,03,08,16,03,11.60
2015,03,08,16,04,11.50
2015,03,08,16,05,11.50
2015,03,08,16,06,11.40
2015,03,08,16,07,11.40
2015,03,08,16,08,11.30
2015,03,08,16,09,11.30
2015,03,08,16,10,11.30
2015,03,08,16,11,11.30
2015,03,08,16,12,11.30
2015,03,08,16,13,11.40
2015,03,08,16,14,11.40
2015,03,08,16,15,11.40
2015,03,08,16,16,11.40
2015,03,08,16,17,11.40
2015,03,08,16,18,11.40
2015,03,08,16,19,11.40
2015,03,08,16,20,11.40
2015,03,08,16,21,11.40
2015,03,08,16,22,11.40
2015,03,08,16,23,11.40
2015,03,08,16,24,11.40
2015,03,08,16,25,11.40
2015,03,08,16,26,11.40
2015,03,08,16,27,11.40
2015,03,08,16,28,11.40
2015,03,08,16,29,11.40
2015,03,08,16,30,11.40
2015,03,08,16,31,11.30
2015,03,08,16,32,11.30
2015,03,08,16,33,11.30
2015,03,08,16,34,11.30
2015,03,08,16,35,11.30
2015,03,08,16,36,11.30
2015,03,08,16,37,11.30
2015,03,08,16,38,11.30
2015,03,08,16,39,11.30
2015,03,08,16,40,11.30
2015,03,08,16,41,11.30
2015,03,08,16,42,11.30
2015,03,08,16,43,11.30
2015,03,08,16,44,11.30
2015,03,08,16,45,11.30
2015,03,08,16,46,11.30
2015,03,08,16,47,11.30
2015,03,08,16,48,11.30
2015,03,08,16,49,11.40
2015,03,08,16,50,11.40
2015,03,08,16,51,11.40
2015,03,08,16,52,11.40
2015,03,08,16,53,11.40
2015,03,08,16,54,11.40
2015,03,08,16,55,11.40
2015,03,08,16,56,11.40
2015,03,08,16,57,11.50
2015,03,08,16,58,11.50
2015,03,08,16,59,11.50
2015,03,08,17,00,11.50
2015,03,08,17,01,11.50
2015,03,08,17,02,11.50
2015,03,08,17,03,11.50
2015,03,08,17,04,11.50
2015,03,08,17,05,11.50
2015,03,08,17,06,11.50
2015,03,08,17,07,11.50
2015,03,08,17,08,11.50
2015,03,08,17,09,11.50
2015,03,08,17,10,11.50
2015,03,08,17,11,11.50
2015,03,08,17,12,11.50
2015,03,08,17,13,11.60
2015,03,08,17,14,11.60
2015,03,08,17,15,11.60
2015,03,08,17,16,11.60
2015,03,08,17,17,11.60
2015,03,08,17,18,11.60
2015,03,08,17,19,11.60
2015,03,08,17,20,11.60
2015,03,08,17,21,11.60
2015,03,08,17,22,11.60
2015,03,08,17,23,11.60
2015,03,08,17,24,11.60
2015,03,08,17,25,11.60
2015,03,08,17,26,11.60
2015,03,08,17,27,11.60
2015,03,08,17,28,11.70
2015,03,08,17,29,11.70
2015,03,08,17,30,11.70
2015,03,08,17,31,11.80
2015,03,08,17,32,11.80
2015,03,08,17,33,11.90
2015,03,08,17,34,11.90
2015,03,08,17,35,11.90
2015,03,08,17,36,11.90
2015,03,08,17,37,11.90
2015,03,08,17,38,11.90
2015,03,08,17,39,11.90
2015,03,08,17,40,11.90
2015,03,08,17,41,11.90
2015,03,08,17,42,11.90
2015,03,08,17,43,11.90
2015,03,08,17,44,11.90
2015,03,08,17,45,11.90
2015,03,08,17,46,11.90
2015,03,08,17,47,11.90
2015,03,08,17,48,11.90
2015,03,08,17,49,11.90
2015,03,08,17,50,11.90
2015,03,08,17,51,11.90
2015,03,08,17,52,11.90
2015,03,08,17,53,11.90
2015,03,08,17,54,11.90
2015,03,08,17,55,11.90
2015,03,08,17,56,11.90
2015,03,08,17,57,11.80
2015,03,08,17,58,11.80
2015,03,08,17,59,11.80
2015,03,08,18,00,11.80
2015,03,08,18,01,11.80
2015,03,08,18,02,11.80
2015,03,08,18,03,11.70
2015,03,08,18,04,11.60
2015,03,08,18,05,11.50
2015,03,08,18,06,11.40
2015,03,08,18,07,11.30
2015,03,08,18,08,11.20
2015,03,08,18,09,11.10
2015,03,08,18,10,11.10
2015,03,08,18,11,11.00
2015,03,08,18,12,11.00
2015,03,08,18,13,11.00
2015,03,08,18,14,10.90
2015,03,08,18,15,10.90
2015,03,08,18,16,10.80
2015,03,08,18,17,10.80
2015,03,08,18,18,10.80
2015,03,08,18,19,10.70
2015,03,08,18,20,10.70
2015,03,08,18,21,10.70
2015,03,08,18,22,10.60
2015,03,08,18,23,10.50
2015,03,08,18,24,10.50
2015,03,08,18,25,10.40
2015,03,08,18,26,10.40
2015,03,08,18,27,10.30
2015,03,08,18,28,10.30
2015,03,08,18,29,10.30
2015,03,08,18,30,10.20
2015,03,08,18,31,10.20
2015,03,08,18,32,10.20
2015,03,08,18,33,10.10
2015,03,08,18,34,10.10
2015,03,08,18,35,10.00
2015,03,08,18,36,10.00
2015,03,08,18,37,9.90
2015,03,08,18,38,9.90
2015,03,08,18,39,9.90
2015,03,08,18,40,9.80
2015,03,08,18,41,9.80
2015,03,08,18,42,9.80
2015,03,08,18,43,9.70
2015,03,08,18,44,9.70
2015,03,08,18,45,9.70
2015,03,08,18,46,9.60
2015,03,08,18,47,9.60
2015,03,08,18,48,9.60
2015,03,08,18,49,9.50
2015,03,08,18,50,9.50
2015,03,08,18,51,9.40
2015,03,08,18,52,9.40
2015,03,08,18,53,9.40